Location: Caltech
(34.1382°N, 118.1253°W)
Time: 11:54:28
(UTC-07:00)

Iridium 12 - Visible Passes

Search period start: 29 August 2015 00:00
Search period end: 08 September 2015 00:00
Orbit: 776 x 779 km, 86.4° (Epoch: 29 August)

Date Brightness Start Highest point End Pass type
(mag) Time Alt. Az. Time Alt. Az. Time Alt. Az.
29 Aug 7.3 20:46:33 10° SSW 20:51:14 33° W 20:55:53 10° NNW visible
30 Aug 6.0 20:12:26 10° S 20:17:35 65° W 20:22:47 10° N visible
31 Aug 5.5 19:38:57 10° S 19:44:05 65° E 19:49:15 10° N visible
31 Aug 8.7 21:23:37 10° W 21:25:25 11° WNW 21:26:51 10° WNW visible
01 Sep 8.0 20:47:24 10° SW 20:51:30 22° W 20:55:28 10° NNW visible
02 Sep 6.9 20:12:48 10° SSW 20:17:45 43° W 20:22:41 10° NNW visible
03 Sep 5.7 19:38:57 10° S 19:44:10 84° W 19:49:24 10° N visible
04 Sep 8.6 20:48:45 10° WSW 20:51:49 15° WNW 20:54:38 10° NW visible
05 Sep 9.4 05:42:46 10° ENE 05:43:45 11° ENE 05:45:07 10° E visible
05 Sep 7.7 20:13:27 10° SW 20:17:58 29° W 20:22:25 10° NNW visible
06 Sep 6.4 19:39:11 10° SSW 19:44:17 56° W 19:49:25 10° N visible
